趙彗星

P/2007 S1 ( Zhao )

English version
Home page
Updated on December 31, 2010

---------------------------------------------------------------------

・ プロフィール

発見日 2007年9月17日
発見光度 18.2等
発見者 趙海濱 (紫金山天文台)

・ 軌道要素

Epoch 2007 Dec. 6.0 TT = JDT 2454440.5
T 2007 Dec. 6.68739 TT                                  MPC
q   2.4947160            (2000.0)            P               Q
n   0.13310956     Peri.  245.37184     +0.88796421     -0.45535160
a   3.7989468      Node   141.62534     +0.45057003     +0.83312726
e   0.3433138      Incl.    5.97391     +0.09222910     +0.31393295
P   7.40
From 63 observations 2007 Sept. 8-Oct. 16, mean residual 0".7.

・ 光度変化

        m1 = 13.0 + 5 logΔ + 10.0 log r

---------------------------------------------------------------------

軌道要素はM.P.E.C. 2010-X76に掲載されたものです。
光度グラフはComet for Windowsで作成したものです。

---------------------------------------------------------------------

Copyright(C) Seiichi Yoshida (comet@aerith.net). All rights reserved.